| time (UTC) | temp C | wind direction | speed KPH | gust KPH | rain 1hr cm | rain 24hr cm | rain mn cm | humidity % | barometer mb |
| 20260503021749 | 13 | 0.0 | 0.0 | 0.00 | 0.00 | 0.00 | 56 | 941.6 | |
| 20260503020150 | 13 | 0.0 | 0.0 | 0.00 | 0.00 | 0.00 | 56 | 941.6 | |
| 20260503014550 | 13 | 0.0 | 0.0 | 0.00 | 0.00 | 0.00 | 56 | 941.6 | |
| 20260503012950 | 13 | 0.0 | 0.0 | 0.00 | 0.00 | 0.00 | 56 | 941.6 | |
| 20260503011350 | 13 | 0.0 | 0.0 | 0.00 | 0.00 | 0.00 | 56 | 941.6 | |
| 20260503005750 | 13 | 0.0 | 0.0 | 0.00 | 0.00 | 0.00 | 56 | 941.6 | |
| 20260503004150 | 13 | 0.0 | 0.0 | 0.00 | 0.00 | 0.00 | 56 | 941.6 | |
| 20260503002549 | 13 | 0.0 | 0.0 | 0.00 | 0.00 | 0.00 | 56 | 941.6 | |
| 20260503000949 | 13 | 0.0 | 0.0 | 0.00 | 0.00 | 0.00 | 56 | 941.6 | |
| 20260502235349 | 13 | 0.0 | 0.0 | 0.00 | 0.00 | 0.00 | 56 | 941.6 | |
| 20260502233749 | 13 | 0.0 | 0.0 | 0.00 | 0.00 | 0.00 | 56 | 941.6 | |
| 20260502232150 | 13 | 0.0 | 0.0 | 0.00 | 0.00 | 0.00 | 56 | 941.6 | |
| 20260502230550 | 13 | 0.0 | 0.0 | 0.00 | 0.00 | 0.00 | 56 | 941.6 | |
| 20260502224950 | 13 | 0.0 | 0.0 | 0.00 | 0.00 | 0.00 | 56 | 941.6 | |
| 20260502223350 | 13 | 0.0 | 0.0 | 0.00 | 0.00 | 0.00 | 56 | 941.6 | |
| 20260502221750 | 13 | 0.0 | 0.0 | 0.00 | 0.00 | 0.00 | 56 | 941.6 | |
| 20260502220149 | 13 | 0.0 | 0.0 | 0.00 | 0.00 | 0.00 | 56 | 941.6 | |
| 20260502214550 | 13 | 0.0 | 0.0 | 0.00 | 0.00 | 0.00 | 56 | 941.6 | |
| 20260502212950 | 13 | 0.0 | 0.0 | 0.00 | 0.00 | 0.00 | 56 | 941.6 | |
| 20260502211350 | 13 | 0.0 | 0.0 | 0.00 | 0.00 | 0.00 | 56 | 941.6 | |
| 20260502205750 | 13 | 0.0 | 0.0 | 0.00 | 0.00 | 0.00 | 56 | 941.6 | |
| 20260502204149 | 13 | 0.0 | 0.0 | 0.00 | 0.00 | 0.00 | 56 | 941.6 | |
| 20260502202550 | 13 | 0.0 | 0.0 | 0.00 | 0.00 | 0.00 | 56 | 941.5 | |
| 20260502200949 | 13 | 0.0 | 0.0 | 0.00 | 0.00 | 0.00 | 56 | 941.5 | |
| 20260502195349 | 14 | 0.0 | 0.0 | 0.00 | 0.00 | 0.00 | 56 | 941.5 | |
| 20260502193749 | 14 | 0.0 | 0.0 | 0.00 | 0.00 | 0.00 | 56 | 941.4 | |
| 20260502192149 | 14 | 0.0 | 0.0 | 0.00 | 0.00 | 0.00 | 56 | 941.5 | |
| 20260502190549 | 16 | 0.0 | 0.0 | 0.00 | 0.00 | 0.00 | 53 | 940.9 | |
| 20260502184950 | 16 | 0.0 | 0.0 | 0.00 | 0.00 | 0.00 | 53 | 940.9 | |
| 20260502183349 | 16 | 0.0 | 0.0 | 0.00 | 0.00 | 0.00 | 53 | 940.9 | |
| 20260502181749 | 16 | 0.0 | 0.0 | 0.00 | 0.00 | 0.00 | 53 | 940.8 | |
| 20260502180149 | 16 | 0.0 | 0.0 | 0.00 | 0.00 | 0.00 | 52 | 940.8 | |
| 20260502164150 | 17 | 0.0 | 0.0 | 0.00 | 0.00 | 0.00 | 50 | 940.7 | |
| 20260502162550 | 17 | 0.0 | 0.0 | 0.00 | 0.00 | 0.00 | 50 | 940.8 | |
| 20260502160950 | 18 | 0.0 | 0.0 | 0.00 | 0.00 | 0.00 | 49 | 940.9 | |
| 20260502152150 | 18 | 0.0 | 0.0 | 0.00 | 0.00 | 0.00 | 49 | 941.1 | |
| 20260502150550 | 18 | 0.0 | 0.0 | 0.00 | 0.00 | 0.00 | 49 | 941.2 | |
| 20260502122549 | 18 | 0.0 | 0.0 | 0.00 | 0.00 | 0.00 | 49 | 943.2 | |
| 20260502120949 | 18 | 0.0 | 0.0 | 0.00 | 0.00 | 0.00 | 49 | 943.2 | |
| 20260502115349 | 18 | 0.0 | 0.0 | 0.00 | 0.00 | 0.00 | 50 | 943.3 | |
| 20260502113750 | 18 | 0.0 | 0.0 | 0.00 | 0.00 | 0.00 | 50 | 943.4 | |
| 20260502112150 | 18 | 0.0 | 0.0 | 0.00 | 0.00 | 0.00 | 51 | 943.6 | |
| 20260502110550 | 17 | 0.0 | 0.0 | 0.00 | 0.00 | 0.00 | 52 | 944.0 | |
| 20260502104950 | 17 | 0.0 | 0.0 | 0.00 | 0.00 | 0.00 | 52 | 944.2 | |
| 20260502103349 | 17 | 0.0 | 0.0 | 0.00 | 0.00 | 0.00 | 51 | 944.2 | |
| 20260502101750 | 17 | 0.0 | 0.0 | 0.00 | 0.00 | 0.00 | 51 | 944.4 | |
| 20260502100150 | 17 | 0.0 | 0.0 | 0.00 | 0.00 | 0.00 | 51 | 944.4 | |
| 20260502091349 | 16 | 0.0 | 0.0 | 0.00 | 0.00 | 0.00 | 54 | 945.0 | |
| 20260502070550 | 12 | 0.0 | 0.0 | 0.00 | 0.00 | 0.00 | 62 | 945.3 | |
| 20260502064950 | 12 | 0.0 | 0.0 | 0.00 | 0.00 | 0.00 | 63 | 945.3 | |
| 20260502063350 | 11 | 0.0 | 0.0 | 0.00 | 0.00 | 0.00 | 66 | 945.3 | |
| 20260502061749 | 10 | 0.0 | 0.0 | 0.00 | 0.00 | 0.00 | 67 | 945.3 | |
| 20260502060149 | 9 | 0.0 | 0.0 | 0.00 | 0.00 | 0.00 | 67 | 945.3 | |
| 20260502054550 | 9 | 0.0 | 0.0 | 0.00 | 0.00 | 0.00 | 68 | 945.4 | |
| 20260502052949 | 8 | 0.0 | 0.0 | 0.00 | 0.00 | 0.00 | 67 | 945.4 | |
| 20260502051349 | 8 | 0.0 | 0.0 | 0.00 | 0.00 | 0.00 | 68 | 945.3 | |
| 20260502045750 | 8 | 0.0 | 0.0 | 0.00 | 0.00 | 0.00 | 68 | 945.3 | |
| 20260502044150 | 8 | 0.0 | 0.0 | 0.00 | 0.00 | 0.00 | 67 | 945.2 | |
| 20260502042549 | 8 | 0.0 | 0.0 | 0.00 | 0.00 | 0.00 | 67 | 945.2 | |
| 20260502040949 | 8 | 0.0 | 0.0 | 0.00 | 0.00 | 0.00 | 66 | 945.2 | |
| 20260502035349 | 8 | 0.0 | 0.0 | 0.00 | 0.00 | 0.00 | 66 | 945.1 | |
| 20260502033749 | 8 | 0.0 | 0.0 | 0.00 | 0.00 | 0.00 | 67 | 945.0 | |
| 20260502032149 | 8 | 0.0 | 0.0 | 0.00 | 0.00 | 0.00 | 66 | 945.1 | |
| 20260502030549 | 9 | 0.0 | 0.0 | 0.00 | 0.00 | 0.00 | 66 | 945.1 | |
| 20260502024949 | 9 | 0.0 | 0.0 | 0.00 | 0.00 | 0.00 | 66 | 945.0 | |
| 20260502023349 | 9 | 0.0 | 0.0 | 0.00 | 0.00 | 0.00 | 65 | 945.0 |